Regional Weather Roundup
Issued by NWS

Home | Current Version | Previous Version | Text Only | Print | Product List | Glossary Off
Versions: 1 2 3 4 5 6 7 8 9 10 11 12 13 14 15 16 17 18 19 20 21 22 23 24 25 26 27 28 29 30 31 32 33 34 35 36 37 38 39 40 41 42 43 44 45 46 47 48 49 50

000
ASUS45 KSLC 050510
RWRUT

UTAH REGIONAL WEATHER ROUNDUP
NATIONAL WEATHER SERVICE SALT LAKE CITY UT
1000 PM MST WED MAR 04 2015

UTZ001>011-023>025-050600-

NORTHERN UTAH

CITY           SKY/WX    TMP DP  RH WIND       PRES   REMARKS
BRIGHAM CITY   CLEAR     31  21  64 CALM      30.34R
HILL AFB       CLEAR     27  14  56 E9        30.31R WCI  18
LOGAN          CLEAR     26  19  74 SW3       30.31R
OGDEN          CLEAR     27  19  72 S8        30.31R WCI  19
PROVO AIRPORT  CLEAR     28  18  64 E6        30.33R WCI  22
SALT LAKE CITY CLEAR     31  20  63 SE7       30.32R WCI  24
VERNAL         CLEAR     24  13  62 NW5       30.25R WCI  18
WENDOVER       CLEAR     36  19  51 W3        30.31R
HEBER CITY     CLEAR     18  12  79 E6        30.30R WCI   9
WEST JORDAN    CLEAR     28  19  69 SW7       30.32R WCI  21

$$

UTZ012>022-026-027-050600-

SOUTHERN/CENTRAL UTAH

CITY           SKY/WX    TMP DP  RH WIND       PRES   REMARKS
BLANDING       CLEAR     27  15  62 NW5       30.32R WCI  21
BRYCE CANYON   PTCLDY     4   0  83 W10       30.27R WCI -11
CEDAR CITY     PTCLDY    17  12  80 CALM      30.29R
DELTA          CLEAR     29  23  81 E5        30.32R WCI  23
HANKSVILLE     CLEAR     32  21  64 NW3       30.29R
MILFORD        CLEAR     28  21  75 W7        30.32R WCI  21
MOAB/CYNLANDS  CLEAR     30  19  63 CALM      30.24R
PRICE          CLEAR     28  11  48 CALM      30.24R
ST GEORGE      CLEAR     43  23  45 NE8       30.30R
KANAB          CLEAR     34  19  55 N15       30.31R WCI  24

$$

REGIONAL REPORTS     COLORADO/ARIZONA

CITY           SKY/WX    TMP DP  RH WIND       PRES   REMARKS
CRAIG, CO      PTCLDY     8   2  76 CALM      30.27R
GRAND JUNCTION CLEAR     31   8  38 VRB3      30.27R
RIFLE          PTCLDY    22  11  62 SE10      30.31R WCI  11
MONTROSE       CLEAR     26  17  68 SE10      30.29R WCI  16
CORTEZ         CLEAR     26  15  63 CALM      30.25R
PAGE, AZ       CLEAR     37  21  52 CALM      30.26R HAZE
GRAND CANYON   CLEAR     15  13  91 CALM      30.26R
KINGMAN        CLEAR     38  27  64 E9        30.23R WCI  31
FLAGSTAFF      PTCLDY    24  12  60 E3        30.24R

$$

REGIONAL REPORTS    NEVADA/IDAHO/WYOMING

CITY           SKY/WX    TMP DP  RH WIND       PRES   REMARKS
LAS VEGAS, NV  CLEAR     52  23  32 S7        30.22R
ELY            CLEAR     21  16  81 S6        30.29R WCI  13
ELKO           CLEAR     27  17  66 CALM      30.29R
POCATELLO, ID  CLEAR     29  11  47 SW10      30.29R WCI  20
EVANSTON, WY   CLEAR     13   7  77 SW10      30.23R WCI   0
ROCK SPRINGS   CLEAR     16   7  67 W15       30.19R WCI   1

$$


USA.gov is the U.S. government's official web portal to all federal, state and local government web resources and services.